Regional Weather Roundup
Issued by NWS New Orleans/Baton Rouge, LA

Home | Current Version | Previous Version | Text Only | Print | Product List | Glossary On
Versions: 1 2 3 4 5 6 7 8 9 10 11 12 13 14 15 16 17 18 19 20 21 22 23 24 25 26 27 28 29 30 31 32 33 34 35 36 37 38 39 40 41 42 43 44 45 46 47 48 49 50
485
ASUS44 KLIX 171108
RWRLIX
NEW ORLEANS REGIONAL WEATHER ROUNDUP
NATIONAL WEATHER SERVICE NEW ORLEANS LA
600 AM CDT FRI APR 17 2015

NOTE: "FAIR" INDICATES FEW OR NO CLOUDS BELOW 12,000 FEET WITH NO
      SIGNIFICANT WEATHER AND/OR OBSTRUCTIONS TO VISIBILITY.
      SKY/WX - SKY CONDITION AND SIGNIFICANT WEATHER.
      TMP - AIR TEMPERATURE.     DP    - DEWPOINT TEMPERATURE.
      RH  - RELATIVE HUMIDITY.   PRES  - PRESSURE.
      HI  - HEAT INDEX.          WCI   - WIND CHILL INDEX.

*  THESE STATIONS ARE NOT NWS OR FAA STATIONS AND ARE NOT UNDER
   NWS QUALITY CONTROL.

LAZ038-040-048-061>063-065>067-069-171200-
SOUTHEAST LOUISIANA

CITY           SKY/WX    TMP DP  RH WIND       PRES   REMARKS
N.O. AUDUBON     N/A     70  67  92 MISG        N/A
N.O. INTL ARPT MOCLDY    69  65  86 CALM      30.00R
N.O. LAKEFRONT CLOUDY    73  67  81 N6        30.01R
SLIDELL        CLOUDY    69  69 100 N3        30.01R
BATON ROUGE    MOCLDY    66  65  96 E6        29.96F
BOOTHVILLE     CLOUDY    70  68  93 E8        29.99R
BELLE CHASSE   CLOUDY    68  66  93 NW5       30.00R
BOGALUSA*      RAIN      69  66  90 CALM      30.03S
GALLIANO*      CLOUDY    69  67  94 CALM      29.99R
NEW ROADS*     DRIZZLE   66  65  97 N7        29.97R
GONZALES*      CLOUDY    68  68 100 CALM      29.98F FOG
HAMMOND*       CLOUDY    68  66  94 SE3       30.00F
HOUMA*         CLOUDY    68  67  98 N6        29.99S
PORT FOURCHON* PTSUNNY   72  70  94 E8        30.01S FOG

$$

MSZ070-080>082-171200-
SOUTHERN MISSISSIPPI

CITY           SKY/WX    TMP DP  RH WIND       PRES   REMARKS
MCCOMB         CLOUDY    67  66  97 SE7       29.97F
GULFPORT       CLOUDY    71  68  90 SE14      29.99S
BILOXI         CLOUDY    71  71  99 SE13      30.00R
PASCAGOULA     CLOUDY    70  68  93 SE8       30.02R

$$

COASTAL OBSERVATIONS
LAKE AND NEARSHORE STATIONS

STATION/POSITION TIME  TEMP    WIND        PRES    WAVE
                       AIR SEA DIR/SP/G            HT/PER
                 (UTC) (F)     (DEG/KT/KT) (MB)    (FT/S)
PASCAGOULA       1000   71     130/ 19/ 26 1014.9
WAVELAND YACHT   1000   73 73  150/ 12/ 16 1015.9
GRAND ISLE       1000   71 75   90/  9/ 13 1014.7
SOUTHWEST PASS   1000   68 63   70/ 13/ 13 1015.5
NEW CANAL        1000   70     350/  2/  3 1016.0
SHELL BEACH      1000   72 74  120/ 19/ 23 1013.7

OFFSHORE STATIONS

STATION/POSITION TIME  TEMP    WIND        PRES    WAVE
                       AIR SEA DIR/SP/G            HT/PER
                 (UTC) (F)     (DEG/KT/KT) (MB)    (FT/S)
64 S DAUPHIN ISL 1050   70 75   60/ 14/ 17 1016.9    4/ 5

$$




USA.gov is the U.S. government's official web portal to all federal, state and local government web resources and services.